| time (UTC) | temp F | wind direction | speed knots | gust knots | rain 1hr in | rain 24hr in | rain mn in | humidity % | barometer mb |
| 20260507110028 | 48 | 315 | 0.0 | 5.2 | 0.02 | 0.33 | 0.18 | 90 | 1007.7 |
| 20260507104524 | 48 | 306 | 0.0 | 3.5 | 0.02 | 0.32 | 0.17 | 90 | 1007.0 |
| 20260507103022 | 48 | 23 | 0.0 | 7.8 | 0.02 | 0.32 | 0.17 | 90 | 1006.8 |
| 20260507101621 | 49 | 348 | 0.0 | 3.5 | 0.02 | 0.31 | 0.16 | 90 | 1007.1 |
| 20260507100025 | 49 | 355 | 0.0 | 2.6 | 0.03 | 0.31 | 0.16 | 90 | 1007.2 |
| 20260507094516 | 49 | 11 | 0.0 | 4.3 | 0.03 | 0.30 | 0.15 | 90 | 1007.0 |
| 20260507093032 | 49 | 355 | 0.9 | 5.2 | 0.02 | 0.28 | 0.14 | 90 | 1006.8 |
| 20260507091514 | 49 | 5 | 0.0 | 2.6 | 0.03 | 0.28 | 0.14 | 90 | 1006.3 |
| 20260507090014 | 50 | 19 | 0.9 | 3.5 | 0.04 | 0.28 | 0.13 | 90 | 1006.7 |
| 20260507084509 | 50 | 9 | 0.0 | 0.9 | 0.08 | 0.27 | 0.12 | 91 | 1006.7 |
| 20260507083015 | 50 | 9 | 0.0 | 7.0 | 0.11 | 0.27 | 0.12 | 91 | 1006.2 |
| 20260507081505 | 51 | 350 | 0.9 | 7.0 | 0.10 | 0.26 | 0.11 | 91 | 1006.3 |
| 20260507080001 | 53 | 309 | 0.9 | 8.7 | 0.08 | 0.24 | 0.09 | 91 | 1006.4 |
| 20260507074605 | 53 | 193 | 0.0 | 1.7 | 0.03 | 0.19 | 0.04 | 91 | 1005.9 |
| 20260507073111 | 53 | 193 | 0.0 | 1.7 | 0.00 | 0.16 | 0.01 | 91 | 1005.6 |
| 20260507071611 | 53 | 193 | 0.0 | 0.0 | 0.00 | 0.16 | 0.01 | 91 | 1005.2 |
| 20260507070057 | 53 | 193 | 0.0 | 0.0 | 0.01 | 0.16 | 0.01 | 91 | 1005.1 |
| 20260507064558 | 53 | 193 | 0.0 | 0.9 | 0.01 | 0.16 | 0.01 | 91 | 1005.4 |
| 20260507063058 | 53 | 193 | 0.0 | 0.9 | 0.01 | 0.16 | 0.01 | 91 | 1005.5 |
| 20260507061554 | 53 | 193 | 0.0 | 0.9 | 0.01 | 0.16 | 0.01 | 91 | 1005.5 |
| 20260507060051 | 53 | 193 | 0.0 | 2.6 | 0.00 | 0.15 | 0.00 | 91 | 1005.7 |
| 20260507054602 | 53 | 194 | 0.0 | 2.6 | 0.00 | 0.15 | 0.00 | 91 | 1005.6 |
| 20260507053049 | 53 | 193 | 0.0 | 1.7 | 0.00 | 0.15 | 0.00 | 91 | 1006.2 |
| 20260507051548 | 53 | 189 | 0.9 | 3.5 | 0.00 | 0.15 | 0.00 | 91 | 1006.3 |
| 20260507050046 | 53 | 213 | 0.9 | 3.5 | 0.00 | 0.15 | 0.00 | 91 | 1006.4 |
| 20260507044546 | 54 | 200 | 0.0 | 2.6 | 0.00 | 0.15 | 0.00 | 91 | 1006.4 |
| 20260507043045 | 54 | 173 | 1.7 | 4.3 | 0.00 | 0.15 | 0.00 | 91 | 1006.3 |
| 20260507041544 | 54 | 184 | 0.9 | 4.3 | 0.00 | 0.15 | 0.00 | 91 | 1006.3 |
| 20260507040053 | 54 | 168 | 0.9 | 2.6 | 0.00 | 0.15 | 0.00 | 90 | 1006.4 |
| 20260507034549 | 54 | 155 | 0.0 | 4.3 | 0.00 | 0.15 | 0.15 | 90 | 1006.3 |
| 20260507033043 | 54 | 176 | 0.9 | 6.1 | 0.00 | 0.15 | 0.15 | 90 | 1006.6 |
| 20260507031540 | 54 | 207 | 1.7 | 5.2 | 0.00 | 0.15 | 0.15 | 90 | 1006.7 |
| 20260507030039 | 54 | 184 | 2.6 | 7.8 | 0.00 | 0.15 | 0.15 | 90 | 1006.6 |
| 20260507024538 | 54 | 188 | 2.6 | 8.7 | 0.00 | 0.15 | 0.15 | 90 | 1006.5 |
| 20260507023036 | 54 | 185 | 1.7 | 7.0 | 0.00 | 0.15 | 0.15 | 90 | 1006.3 |
| 20260507021535 | 54 | 196 | 1.7 | 5.2 | 0.00 | 0.15 | 0.15 | 90 | 1006.3 |
| 20260507020034 | 54 | 208 | 1.7 | 7.0 | 0.00 | 0.15 | 0.15 | 90 | 1006.6 |
| 20260507014531 | 54 | 159 | 1.7 | 8.7 | 0.00 | 0.15 | 0.15 | 90 | 1006.8 |
| 20260507013036 | 54 | 155 | 2.6 | 9.6 | 0.00 | 0.15 | 0.15 | 90 | 1006.9 |
| 20260507011537 | 54 | 146 | 1.7 | 9.6 | 0.00 | 0.15 | 0.15 | 90 | 1007.0 |
| 20260507010029 | 54 | 207 | 3.5 | 7.0 | 0.00 | 0.15 | 0.15 | 90 | 1007.2 |
| 20260507004526 | 54 | 184 | 3.5 | 7.8 | 0.01 | 0.15 | 0.15 | 90 | 1007.2 |
| 20260507003026 | 54 | 165 | 1.7 | 7.8 | 0.01 | 0.15 | 0.15 | 90 | 1007.2 |
| 20260507001524 | 54 | 151 | 3.5 | 8.7 | 0.01 | 0.15 | 0.15 | 90 | 1007.0 |
| 20260507000023 | 55 | 179 | 1.7 | 8.7 | 0.01 | 0.15 | 0.15 | 90 | 1007.1 |
| 20260506234525 | 55 | 188 | 2.6 | 7.8 | 0.01 | 0.14 | 0.14 | 90 | 1007.1 |
| 20260506233020 | 55 | 218 | 4.3 | 8.7 | 0.03 | 0.14 | 0.14 | 90 | 1007.1 |
| 20260506231518 | 55 | 178 | 2.6 | 7.0 | 0.06 | 0.14 | 0.14 | 90 | 1007.1 |
| 20260506230017 | 55 | 190 | 2.6 | 7.0 | 0.10 | 0.14 | 0.14 | 90 | 1007.0 |
| 20260506224524 | 55 | 202 | 2.6 | 15.6 | 0.10 | 0.13 | 0.13 | 89 | 1006.9 |
| 20260506223012 | 55 | 173 | 3.5 | 8.7 | 0.09 | 0.11 | 0.11 | 89 | 1006.9 |
| 20260506221510 | 55 | 157 | 2.6 | 13.0 | 0.06 | 0.08 | 0.08 | 89 | 1007.2 |
| 20260506220008 | 55 | 199 | 2.6 | 7.8 | 0.03 | 0.04 | 0.04 | 88 | 1007.3 |
| 20260506214506 | 56 | 229 | 1.7 | 10.4 | 0.02 | 0.03 | 0.03 | 88 | 1007.5 |
| 20260506213004 | 56 | 151 | 2.6 | 8.7 | 0.01 | 0.02 | 0.02 | 87 | 1007.6 |
| 20260506211502 | 56 | 155 | 3.5 | 7.0 | 0.01 | 0.02 | 0.02 | 87 | 1007.7 |
| 20260506210001 | 56 | 166 | 3.5 | 7.0 | 0.00 | 0.01 | 0.01 | 86 | 1007.9 |
| 20260506204600 | 57 | 192 | 2.6 | 7.8 | 0.00 | 0.01 | 0.01 | 85 | 1007.9 |
| 20260506203143 | 57 | 171 | 3.5 | 8.7 | 0.01 | 0.01 | 0.01 | 84 | 1007.9 |
| 20260506201559 | 58 | 198 | 3.5 | 7.8 | 0.01 | 0.01 | 0.01 | 84 | 1007.9 |
| 20260506200056 | 57 | 187 | 2.6 | 8.7 | 0.01 | 0.01 | 0.01 | 85 | 1008.3 |
| 20260506194555 | 57 | 154 | 2.6 | 13.0 | 0.00 | 0.00 | 0.00 | 84 | 1008.5 |
| 20260506193053 | 58 | 210 | 2.6 | 12.2 | 0.00 | 0.00 | 0.00 | 82 | 1008.6 |
| 20260506191554 | 59 | 225 | 3.5 | 13.0 | 0.00 | 0.00 | 0.00 | 79 | 1008.5 |
| 20260506190055 | 59 | 193 | 4.3 | 13.9 | 0.00 | 0.00 | 0.00 | 78 | 1008.7 |
| 20260506184558 | 60 | 221 | 5.2 | 13.9 | 0.00 | 0.00 | 0.00 | 78 | 1008.6 |
| 20260506183049 | 61 | 225 | 5.2 | 13.0 | 0.00 | 0.00 | 0.00 | 78 | 1008.8 |
| 20260506181548 | 61 | 200 | 4.3 | 12.2 | 0.00 | 0.00 | 0.00 | 78 | 1009.1 |
| 20260506180046 | 61 | 162 | 5.2 | 16.5 | 0.00 | 0.00 | 0.00 | 78 | 1009.2 |
| 20260506174546 | 61 | 159 | 4.3 | 13.0 | 0.00 | 0.00 | 0.00 | 76 | 1009.4 |
| 20260506173052 | 62 | 209 | 5.2 | 17.4 | 0.00 | 0.00 | 0.00 | 76 | 1009.9 |
| 20260506171542 | 63 | 192 | 5.2 | 12.2 | 0.00 | 0.00 | 0.00 | 75 | 1009.8 |
| 20260506170040 | 64 | 173 | 6.1 | 14.8 | 0.00 | 0.00 | 0.00 | 75 | 1009.8 |
| 20260506164545 | 62 | 213 | 6.1 | 16.5 | 0.00 | 0.00 | 0.00 | 77 | 1010.1 |
| 20260506163054 | 61 | 247 | 6.1 | 17.4 | 0.00 | 0.00 | 0.00 | 78 | 1010.3 |
| 20260506161537 | 62 | 205 | 7.0 | 13.0 | 0.00 | 0.00 | 0.00 | 76 | 1010.4 |
| 20260506160036 | 64 | 192 | 4.3 | 13.9 | 0.00 | 0.00 | 0.00 | 75 | 1010.5 |
| 20260506154537 | 64 | 173 | 5.2 | 19.1 | 0.00 | 0.00 | 0.00 | 75 | 1010.7 |
| 20260506153033 | 64 | 180 | 4.3 | 14.8 | 0.00 | 0.00 | 0.00 | 74 | 1010.9 |
| 20260506151538 | 63 | 205 | 7.0 | 16.5 | 0.00 | 0.00 | 0.00 | 76 | 1011.0 |
| 20260506150028 | 63 | 194 | 6.1 | 19.1 | 0.00 | 0.00 | 0.00 | 76 | 1011.1 |
| 20260506144528 | 62 | 179 | 6.1 | 13.9 | 0.00 | 0.00 | 0.00 | 76 | 1010.8 |
| 20260506143028 | 61 | 192 | 4.3 | 18.2 | 0.00 | 0.00 | 0.00 | 77 | 1010.9 |
| 20260506141527 | 62 | 198 | 4.3 | 13.9 | 0.00 | 0.00 | 0.00 | 77 | 1010.9 |
| 20260506140029 | 62 | 156 | 3.5 | 11.3 | 0.00 | 0.00 | 0.00 | 76 | 1010.7 |
| 20260506134523 | 62 | 194 | 5.2 | 16.5 | 0.00 | 0.00 | 0.00 | 76 | 1011.0 |
| 20260506133022 | 61 | 200 | 7.0 | 16.5 | 0.00 | 0.00 | 0.00 | 77 | 1011.3 |
| 20260506131521 | 61 | 202 | 6.1 | 19.1 | 0.00 | 0.00 | 0.00 | 78 | 1011.2 |
| 20260506130018 | 60 | 211 | 4.3 | 15.6 | 0.00 | 0.00 | 0.00 | 79 | 1011.0 |
| 20260506124517 | 60 | 220 | 4.3 | 15.6 | 0.00 | 0.00 | 0.00 | 79 | 1010.9 |
| 20260506123016 | 60 | 229 | 4.3 | 9.6 | 0.00 | 0.00 | 0.00 | 80 | 1011.0 |
| 20260506121512 | 58 | 196 | 3.5 | 11.3 | 0.00 | 0.00 | 0.00 | 82 | 1011.2 |
| 20260506120012 | 57 | 159 | 6.1 | 13.9 | 0.00 | 0.00 | 0.00 | 83 | 1011.3 |
| 20260506114508 | 57 | 215 | 3.5 | 12.2 | 0.00 | 0.00 | 0.00 | 83 | 1011.4 |
| 20260506113006 | 57 | 189 | 4.3 | 12.2 | 0.00 | 0.00 | 0.00 | 84 | 1011.6 |
| 20260506111504 | 56 | 177 | 3.5 | 10.4 | 0.00 | 0.00 | 0.00 | 85 | 1011.8 |